星链-3971 (STARLINK-3971 )

导读

STARLINK-3971是美国SpaceX星链计划中的卫星,于2022年5月14日发射升空,属于星链卫星网络的组成部分,主要为全球提供低延迟、高速率的宽带互联网服务,该卫星运行在近地轨道,助力星链星座完成全球覆盖布局,拓展卫星互联网服务范围。

基本信息
目录编号:
52642
目录名称:
STARLINK-3971
国际标识:
2022-052AW
轨道中心:
EARTH
卫星名称:
星链-3971
卫星全名:
星链-3971 (STARLINK-3971 )
卫星状态:
在轨 (已飞行1574 天)
发射日期:
2022-05-14 UTC
国别 :
美国 (US)
星等 :
--
轨道信息
数据来源 国际轨道数据
星历时间: 2026-09-04T12:28:33+0800
5小时前
查看轨道信息
半长轴: 6837.877km
偏心率: 0.0001083
轨道倾角: 53.159°
近地点辐角 76.100°
升交点赤经 168.108°
平近点角 284.012°
近地点: 458.999km
远地点: 460.481km
周期: 93.787分钟
每日圈数: 15.353976
详细信息
固有亮度:
5
最大亮度:
2.5
卫星平台:
Starlink v1.5
覆盖范围:
全球
运营商:
太空探索技术公司
运营商所在国:
美国
制造商(研发单位):
太空探索技术公司
制造商所在国:
美国
使用方式:
暂无
卫星简介
星链(Starlink)计划是由太空探索技术公司(SpaceX)提出的一个巨型低轨卫星互联网星座项目,计划在2019年至2024年间在太空搭建由约1.2万颗卫星组成的“星链”网络,其中1584颗将部署在地球上空550千米处的近地轨道,并从2020年开始工作。该卫星仍在工作。
2D轨道图
3D轨道图
轨道高度分析图
轨道倾角分析图
轨道综合分析图
查看轨道综合分析图
交会数据列表
事件ID 空间交会对象 最接近时刻(TCA) 交会距离 交会风险概率(CRP) 交会风险指数(CRI) 操作
CDM_260904-144204-302305-264222
2026-09-04T
14:42:18+0000
1.827 km
极远距离
3.641098E-6 低风险 0.46
CDM_260906-124005-264206-446521
2026-09-06T
12:40:22+0000
2.564 km
极远距离
1.496017E-6 低风险 0.38
CDM_260905-192105-264206-804721
2026-09-05T
19:21:57+0000
2.594 km
极远距离
1.387375E-6 低风险 0.38
CDM_260905-181305-264206-231221
2026-09-05T
18:13:55+0000
2.403 km
极远距离
1.347056E-6 低风险 0.38
CDM_260906-050205-264206-344021
2026-09-06T
05:02:03+0000
2.889 km
极远距离
1.218995E-6 低风险 0.37
CDM_260905-234905-264206-471821
2026-09-05T
23:49:26+0000
2.675 km
极远距离
1.014434E-6 低风险 0.35
CDM_260829-195205-264206-787821
2026-08-29T
19:52:29+0000
2.842 km
极远距离
9.655931E-7 极低风险 0.35
CDM_260905-032705-264206-621421
2026-09-05T
03:27:08+0000
2.907 km
极远距离
7.599278E-7 极低风险 0.33
CDM_260905-041405-264206-621421
2026-09-05T
04:14:01+0000
2.911 km
极远距离
7.595127E-7 极低风险 0.33
CDM_260905-221305-264205-364021
2026-09-05T
22:13:29+0000
2.933 km
极远距离
5.949946E-7 极低风险 0.3